Truckee-Tahoe, CA

4:42 AM PDT on September 23, 2017 (GMT -0700)
Truckee-Tahoe

Weather History for KTRK - September, 2013

Change the Weather History Date:

Thursday, September 26, 2013

  Actual Average Record
Temperature  
Mean Temperature 35 °F -  
Max Temperature 46 °F 70 °F 85 °F (1991)
Min Temperature 24 °F 33 °F 23 °F (1955)
Degree Days  
Heating Degree Days 30    
Moisture  
Dew Point 26 °F    
Average Humidity 78    
Maximum Humidity 100    
Minimum Humidity 37    
Precipitation  
Precipitation 0.00 in - - ()
Sea Level Pressure  
Sea Level Pressure 29.99 in    
Wind  
Wind Speed 3 mph (ENE)    
Max Wind Speed 15 mph    
Max Gust Speed 18 mph    
Visibility 8 miles    
Events Fog    
Averages and records for this station are not official NWS values.
T = Trace of Precipitation, MM = Missing Value Source: NWS Daily Summary

Daily Weather History Graph

Daily Weather History Graph

Search for Another Location

Airport or City:

Trip Planner

Search our weather history database for the weather conditions in past years. The results will help you decide how hot, cold, wet, or windy it might be!

Date:

Astronomy

Sep. 26, 2013 Rise Set
Actual Time 6:52 AM PDT 6:50 PM PDT
Civil Twilight 6:25 AM PDT 7:17 PM PDT
Nautical Twilight 5:54 AM PDT 7:48 PM PDT
Astronomical Twilight 5:22 AM PDT 8:19 PM PDT
Moon 11:55 PM PDT (9/26) 1:46 PM PDT (9/26)
Length of Visible Light 12h 51m
Length of Day
11h 58m
Waning Gibbous, 53% of the Moon is Illuminated
Sep 26
Waning Gibbous
Sep 26
Last Quarter
Oct 4
New
Oct 11
First Quarter
Oct 18
Full

Hourly Weather History & Observations

Time (PDT) Temp. Windchill Dew Point Humidity Pressure Visibility Wind Dir Wind Speed Gust Speed Precip Events Conditions
12:15 AM 30.2 °F 26.7 °F 28.4 °F 93% 29.92 in 10.0 mi South 3.5 mph - N/A   Mostly Cloudy
12:35 AM 32.0 °F - 30.2 °F 93% 29.91 in 10.0 mi Calm Calm - N/A   Partly Cloudy
12:55 AM 32.0 °F - 30.2 °F 93% 29.91 in 10.0 mi Calm Calm - N/A   Clear
1:15 AM 30.2 °F - 28.4 °F 93% 29.91 in 4.0 mi Calm Calm - N/A   Scattered Clouds
1:35 AM 28.4 °F - 28.4 °F 100% 29.91 in 1.2 mi Calm Calm - N/A   Overcast
1:55 AM 28.4 °F 24.6 °F 28.4 °F 100% 29.91 in 0.5 mi West 3.5 mph - N/A Fog Light Freezing Fog
2:15 AM 28.4 °F - 26.6 °F 93% 29.92 in 0.5 mi Calm Calm - N/A Fog Light Freezing Fog
2:35 AM 28.4 °F - 28.4 °F 100% 29.91 in 0.8 mi Calm Calm - N/A   Overcast
2:55 AM 28.4 °F 24.6 °F 28.4 °F 100% 29.91 in 4.0 mi East 3.5 mph - N/A   Partly Cloudy
3:15 AM 28.4 °F - 28.4 °F 100% 29.91 in 0.2 mi Calm Calm - N/A Fog Light Freezing Fog
3:35 AM 24.8 °F - 24.8 °F 100% 29.91 in 0.2 mi Calm Calm - N/A Fog Light Freezing Fog
3:55 AM 26.6 °F - 26.6 °F 100% 29.92 in 0.2 mi Calm Calm - N/A Fog Light Freezing Fog
4:15 AM 26.6 °F 21.2 °F 24.8 °F 93% 29.92 in 0.2 mi SE 4.6 mph - N/A Fog Light Freezing Fog
4:35 AM 26.6 °F - 26.6 °F 100% 29.93 in 0.5 mi Calm Calm - N/A Fog Light Freezing Fog
4:55 AM 26.6 °F 21.2 °F 26.6 °F 100% 29.93 in 0.5 mi South 4.6 mph - N/A Fog Light Freezing Fog
5:15 AM 28.4 °F 24.6 °F 26.6 °F 93% 29.94 in 10.0 mi SW 3.5 mph - N/A   Overcast
5:35 AM 28.4 °F - 28.4 °F 100% 29.94 in 10.0 mi Calm Calm - N/A   Overcast
5:55 AM 28.4 °F - 28.4 °F 100% 29.94 in 10.0 mi Calm Calm - N/A   Overcast
6:15 AM 28.4 °F - 28.4 °F 100% 29.94 in 10.0 mi Calm Calm - N/A   Overcast
6:35 AM 28.4 °F - 28.4 °F 100% 29.94 in 10.0 mi Calm Calm - N/A   Overcast
6:55 AM 30.2 °F - 28.4 °F 93% 29.94 in 10.0 mi Calm Calm - N/A   Overcast
7:50 AM 32.0 °F 28.7 °F 30.2 °F 93% 29.94 in 10.0 mi WSW 3.5 mph - N/A   Overcast
8:45 AM 32.0 °F 28.7 °F 28.4 °F 87% 29.96 in 10.0 mi WNW 3.5 mph - N/A   Overcast
9:45 AM 35.6 °F 32.8 °F 33.8 °F 93% 29.97 in 10.0 mi SW 3.5 mph - N/A   Scattered Clouds
10:55 AM 39.2 °F 35.9 °F 28.4 °F 65% 29.98 in 10.0 mi East 4.6 mph - N/A   Mostly Cloudy
11:50 AM 41.0 °F 39.0 °F 28.4 °F 61% 29.98 in 10.0 mi South 3.5 mph - N/A   Overcast
12:55 PM 44.6 °F 39.2 °F 24.8 °F 46% 29.99 in 10.0 mi NNE 10.4 mph - N/A   Mostly Cloudy
1:45 PM 44.6 °F 38.8 °F 24.8 °F 46% 29.98 in 10.0 mi NE 11.5 mph 17.3 mph N/A   Mostly Cloudy
2:55 PM 44.6 °F 39.2 °F 23.0 °F 43% 29.99 in 10.0 mi NE 10.4 mph - N/A   Mostly Cloudy
3:50 PM 44.6 °F 38.8 °F 23.0 °F 43% 30.00 in 10.0 mi NE 11.5 mph 17.3 mph N/A   Mostly Cloudy
4:50 PM 46.4 °F 40.1 °F 21.2 °F 37% 30.01 in 10.0 mi North 15.0 mph 18.4 mph N/A   Mostly Cloudy
5:55 PM 44.6 °F 38.1 °F 23.0 °F 43% 30.02 in 10.0 mi NNE 13.8 mph - N/A   Overcast
6:15 PM 42.8 °F 37.0 °F 24.8 °F 49% 30.02 in 10.0 mi NE 10.4 mph - N/A   Mostly Cloudy
6:35 PM 41.0 °F 35.8 °F 23.0 °F 49% 30.03 in 10.0 mi NNE 8.1 mph - N/A   Partly Cloudy
6:55 PM 41.0 °F 35.8 °F 23.0 °F 49% 30.04 in 10.0 mi NNE 8.1 mph - N/A   Clear
7:15 PM 39.2 °F 34.2 °F 23.0 °F 52% 30.05 in 10.0 mi NNE 6.9 mph - N/A   Clear
7:35 PM 39.2 °F 35.0 °F 24.8 °F 56% 30.06 in 10.0 mi North 5.8 mph - N/A   Clear
7:55 PM 39.2 °F 35.0 °F 23.0 °F 52% 30.07 in 10.0 mi ENE 5.8 mph - N/A   Clear
8:15 PM 37.4 °F 33.8 °F 24.8 °F 60% 30.07 in 10.0 mi ENE 4.6 mph - N/A   Clear
8:35 PM 35.6 °F - 24.8 °F 65% 30.08 in 10.0 mi Calm Calm - N/A   Clear
8:55 PM 35.6 °F - 23.0 °F 60% 30.09 in 10.0 mi Calm Calm - N/A   Clear
9:15 PM 32.0 °F 28.7 °F 23.0 °F 69% 30.09 in 10.0 mi SSW 3.5 mph - N/A   Clear
9:35 PM 32.0 °F 28.7 °F 23.0 °F 69% 30.10 in 10.0 mi WSW 3.5 mph - N/A   Clear
9:55 PM 32.0 °F 28.7 °F 23.0 °F 69% 30.11 in 10.0 mi East 3.5 mph - N/A   Clear
10:15 PM 28.4 °F 23.3 °F 23.0 °F 80% 30.11 in 10.0 mi SSE 4.6 mph - N/A   Clear
10:35 PM 30.2 °F - 23.0 °F 75% 30.11 in 10.0 mi Calm Calm - N/A   Clear
10:55 PM 26.6 °F 22.6 °F 23.0 °F 86% 30.12 in 10.0 mi SE 3.5 mph - N/A   Clear
11:15 PM 26.6 °F 22.6 °F 23.0 °F 86% 30.12 in 10.0 mi SSW 3.5 mph - N/A   Clear
11:35 PM 28.4 °F - 23.0 °F 80% 30.12 in 10.0 mi Calm Calm - N/A   Clear
11:55 PM 26.6 °F - 23.0 °F 86% 30.13 in 10.0 mi Calm Calm - N/A   Clear